This demonstration page uses our WeatherBlox Daily Observations layout. Learn more.

38.88101, -77.10428

Hourly Observations for January 31, 2017

Temp ( °F °C ) Dew Point ( °F °C ) Humidity (%) Winds ( mph kmh ) Pressure ( in mb ) Visibility ( mi km ) Precip ( " mm )
12:52 am 00:52 Clear 30 -1.1 18 -7.8 61 61 S 3 6 30.03 1017 10 16.0934 0 0
1:52 am 01:52 Cloudy 30 -1.1 20 -6.7 66 66 SW 5 7 30.06 1018 10 16.0934 0 0
2:52 am 02:52 Cloudy 31 -0.6 20 -6.7 64 64 SE 6 9 30.04 1017 10 16.0934 0 0
3:52 am 03:52 Cloudy 32 0 18 -7.8 56 56 SSE 13 20 30.02 1017 10 16.0934 0 0
4:52 am 04:52 Cloudy 32 0 17 -8.3 54 54 S 14 22 29.98 1015 10 16.0934 0 0
5:52 am 05:52 Cloudy 33 0.6 16 -8.9 49 49 SSE 13 20 29.94 1014 10 16.0934 0 0
6:52 am 06:52 Cloudy with Light Snow 34 1.1 18 -7.8 52 52 S 12 19 29.93 1013 9 14.48406 0 0.0254
7:52 am 07:52 Cloudy 34 1.1 19 -7.2 54 54 SSE 14 22 29.87 1011 10 16.0934 0 0.0254
8:52 am 08:52 Mostly Cloudy 37 2.8 24 -4.4 59 59 S 14 22 29.84 1011 10 16.0934 0 0
9:52 am 09:52 Mostly Cloudy 40 4.4 22 -5.6 49 49 SSW 13 20 29.83 1010 10 16.0934 0 0
10:52 am 10:52 Mostly Cloudy 41 5 20 -6.7 43 43 SSW 17 28 29.8 1009 10 16.0934 0 0
11:52 am 11:52 Mostly Cloudy 44 6.7 23 -5 43 43 S 12 19 29.75 1008 10 16.0934 0 0
12:52 pm 12:52 Mostly Cloudy 49 9.4 24 -4.4 38 38 SSW 14 22 29.72 1006 10 16.0934 0 0
1:52 pm 13:52 Mostly Cloudy 49 9.4 29 -1.7 46 46 S 10 17 29.7 1006 10 16.0934 0 0
2:52 pm 14:52 Mostly Cloudy 55 12.8 27 -2.8 34 34 SW 8 13 29.71 1006 10 16.0934 0 0
3:52 pm 15:52 Mostly Cloudy 56 13.3 27 -2.8 33 33 WSW 6 9 29.73 1007 10 16.0934 0 0
4:52 pm 16:52 Mostly Cloudy 55 12.8 26 -3.3 33 33 WSW 5 7 29.76 1008 10 16.0934 0 0
5:52 pm 17:52 Mostly Cloudy 53 11.7 25 -3.9 34 34 VRB 5 7 29.8 1009 10 16.0934 0 0
6:52 pm 18:52 Mostly Cloudy 54 12.2 22 -5.6 29 29 WNW 7 11 29.82 1010 10 16.0934 0 0
7:52 pm 19:52 Mostly Cloudy 52 11.1 23 -5 32 32 NW 8 13 29.83 1010 10 16.0934 0 0
8:52 pm 20:52 Mostly Cloudy 47 8.3 27 -2.8 46 46 NNW 7 11 29.85 1011 10 16.0934 0 0
9:52 pm 21:52 Mostly Cloudy 46 7.8 28 -2.2 50 50 Calm 29.87 1012 10 16.0934 0 0
10:52 pm 22:52 Cloudy 41 5 35 1.7 79 79 S 7 11 29.9 1012 10 16.0934 0 0
11:52 pm 23:52 Mostly Clear 43 6.1 30 -1.1 60 60 Calm 29.91 1013 10 16.0934 0 0

Powered by AerisWeather